[[[{"header":{"parameterUnit":"kt","parameterCategory":2,"dx":1,"dy":1,"la1":30.253999710083008,"la2":30.299108505249023,"lo1":-89.0895004272461,"lo2":-89.04439544677734,"nx":28,"ny":28,"refTime":"2022-10-09T21:00:00:Z","depth":0,"parameterNumber":1,"parameterNumberName":"U-component_of_WINDS"},"data":[-9.2212,-9.2363,-9.2325,-9.2479,-9.2471,-9.257,-9.2593,-9.2618,-9.2628,-9.2742,-9.2799,-9.2775,-9.2769,-9.2829,-9.2889,-9.2877,-9.2907,-9.2989,-9.2961,-9.2626,-9.2577,-9.253,-9.2493,-9.2996,-9.2996,-9.3314,-9.3317,-9.3319,-9.1975,-9.1969,-9.2039,-9.2081,-9.214,-9.2038,-9.2062,-9.2119,-9.2209,-9.2222,-9.2276,-9.2372,-9.2442,-9.2406,-9.2467,-9.2536,-9.2491,-9.2556,-9.2551,-9.2552,-9.2192,-9.2153,-9.2591,-9.2591,-9.2591,-9.2591,-9.2591,-9.2591,-9.1534,-9.1626,-9.1627,-9.1702,-9.1711,-9.1739,-9.1819,-9.1786,-9.1853,-9.1911,-9.1849,-9.1951,-9.1955,-9.2006,-9.2013,-9.2091,-9.2012,-9.207,-9.2085,-9.2101,-9.2127,-9.1679,-9.2098,-9.2097,-9.2096,-9.2094,-9.2093,0,-9.1199,-9.1161,-9.1223,-9.1276,-9.1327,-9.1363,-9.1389,-9.1437,-9.1338,-9.1397,-9.1479,-9.1519,-9.1599,-9.1671,-9.1717,-9.1711,-9.161,-9.1594,-9.1634,-9.1668,-9.1693,-9.1685,-9.1103,-9.1582,-9.1578,-9.1574,-9.1572,-9.157,-9.0754,-9.0863,-9.0844,-9.0893,-9.0897,-9.0978,-9.1017,-9.0921,-9.0968,-9.0984,-9.1069,-9.1139,-9.119,-9.1327,-9.1285,-9.1344,-9.1296,-9.1484,-9.1304,-9.1332,-9.1302,-9.1298,-9.1309,-9.1522,-9.1528,-9.1533,-9.1537,0,-9.0507,-9.044,-9.0596,-9.0564,-9.0559,-9.0679,-9.0652,-9.0737,-9.0693,-9.0806,-9.0826,-9.0758,-9.084,-9.0766,-9.0842,-9.0802,-9.1001,-9.095,-9.1,-9.0987,-9.115,-9.1137,-9.1686,-9.1754,-9.1229,-9.1234,-9.1238,0,-9.0102,-9.0248,-9.0139,-9.0233,-9.0393,-9.029,-9.0451,-9.0429,-9.0428,-9.0515,-9.0387,-9.0472,-9.0362,-9.0437,-9.0376,-9.0525,-9.0538,-9.0516,-9.0499,-9.053,-9.0533,-9.0554,-9.0531,-9.0451,-9.0448,-9.0446,-9.0444,0,-8.9725,-8.9835,-8.9987,-9.0001,-8.998,-9.0054,-9.0048,-9.0045,-9.0084,-9.0122,-9.0147,-9.0199,-9.0228,-9.027,-9.0193,-9.0074,-9.0371,-9.0191,-9.0349,-9.0352,-9.042,-9.0417,-9.092,-9.044,-9.044,-9.0439,-9.0438,0,-8.9386,-8.9427,-8.9655,-8.9635,-8.9668,-8.9766,-8.981,-8.9877,-8.9883,-8.9851,-8.988,-8.9784,-8.9905,-8.9733,-8.9899,-8.9766,-8.9803,-8.9791,-8.9801,-8.9809,-8.9619,-8.9917,-9.0401,-9.045,-8.9816,-8.9811,-8.9806,0,-8.8976,-8.9186,-8.9099,-8.9317,-8.9404,-8.9253,-8.9361,-8.9369,-8.9335,-8.9403,-8.9363,-8.9442,-8.9297,-8.9311,-8.9403,-8.9366,-8.9538,-8.934,-8.9443,-8.9448,-8.945,-8.9893,-8.9986,-9.0302,-8.9738,-8.9745,-8.975,0,-8.8648,-8.8619,-8.8664,-8.8676,-8.8668,-8.8739,-8.8862,-8.8916,-8.8967,-8.8988,-8.9091,-8.9197,-8.9093,-8.9116,-8.9043,-8.9143,-8.9418,-8.9017,-8.9015,-8.9095,-8.9696,-8.9784,-8.9837,-8.9348,-8.9356,-8.9362,-8.9697,0,-8.8159,-8.8252,-8.8369,-8.8397,-8.8439,-8.857,-8.8488,-8.8543,-8.8468,-8.8427,-8.8574,-8.8558,-8.8613,-8.8651,-8.8578,-8.8829,-8.8775,-8.8663,-8.849,-8.8781,-8.889,-8.8934,-8.8336,-8.833,-8.8325,-8.8321,0,0,-8.7784,-8.7916,-8.7813,-8.7928,-8.7957,-8.7797,-8.7944,-8.7953,-8.7977,-8.8001,-8.7903,-8.8052,-8.8044,-8.823,-8.8314,-8.8335,-8.8373,-8.8274,-8.8642,-8.8679,-8.8712,-8.883,-8.8876,-8.8313,-8.8311,-8.831,-8.8308,0,-8.7588,-8.7581,-8.7727,-8.7732,-8.7735,-8.7683,-8.7719,-8.7693,-8.7673,-8.7814,-8.7679,-8.7757,-8.7876,-8.7886,-8.7907,-8.8249,-8.8144,-8.8271,-8.8484,-8.8598,-8.864,-8.8678,-8.8802,-8.8848,-8.8297,-8.8297,-8.8298,0,-8.7252,-8.7233,-8.7294,-8.735,-8.735,-8.7441,-8.724,-8.7344,-8.7411,-8.7228,-8.737,-8.735,-8.7355,-8.754,-8.762,-8.7534,-8.794,-8.7795,-8.7822,-8.783,-8.7936,-8.7987,-8.8033,-8.7434,-8.7431,-8.7429,0,0,-8.7094,-8.7179,-8.7126,-8.7301,-8.731,-8.7235,-8.7274,-8.7202,-8.7209,-8.7212,-8.7184,-8.7196,-8.7264,-8.7311,-8.737,-8.7585,-8.7579,-8.7692,-8.7733,-8.7766,-8.7793,-8.7908,-8.7958,-8.7419,-8.7419,-8.7418,0,0,-8.7018,-8.6964,-8.6886,-8.7078,-8.7089,-8.7048,-8.7158,-8.7062,-8.7107,-8.7082,-8.6966,-8.6964,-8.7135,-8.712,-8.6996,-8.7308,-8.7138,-8.7166,-8.7311,-8.7362,-8.7401,-8.7402,-8.6787,0,0,0,0,0,-8.6774,-8.697,-8.69,-8.692,-8.6988,-8.7087,-8.7095,-8.7003,-8.6886,-8.6976,-8.6937,-8.6819,-8.7029,-8.6916,-8.6938,-8.7078,-8.7289,-8.7312,-8.7334,-8.7571,-8.7624,-8.7669,0,0,0,0,0,0,-8.6781,-8.6805,-8.6895,-8.6864,-8.6878,-8.7079,-8.686,-8.684,-8.6874,-8.685,-8.6831,-8.6819,-8.6742,-8.6899,-8.692,-8.7055,-8.6779,-8.7298,-8.7318,-8.7335,-8.7589,-8.7633,-8.767,0,0,0,0,0,-8.6786,-8.6805,-8.6939,-8.686,-8.6873,-8.6798,-8.6852,-8.6834,-8.6858,-8.6797,-8.6781,-8.6786,-8.6749,-8.6759,-8.6911,-8.7048,-8.6765,-8.6773,-8.7311,-8.7326,-8.734,-8.7611,0,0,0,0,0,0,-8.6789,-8.6789,-8.6939,-8.694,-8.6778,-8.6784,-8.6782,-8.6829,-8.6801,-8.6788,-8.6745,-8.6727,-8.6756,-8.6763,-8.6772,-8.7051,-8.6752,-8.6761,-8.6766,-8.7323,-8.7335,-8.7345,0,0,0,0,0,0,-8.6778,-8.6791,-8.6939,-8.6842,-8.683,-8.6773,-8.6771,-8.6885,-8.6803,-8.675,-8.6733,-8.6737,-8.6741,-8.6766,-8.6773,-8.6954,-8.6743,-8.6751,-8.6756,-8.676,-8.7332,-8.7342,0,0,0,0,0,0,-8.6782,-8.6792,-8.6841,-8.6832,-8.6821,-8.6819,-8.6872,-8.6947,-8.6719,-8.6754,-8.6696,-8.6685,-8.6749,-8.6753,-8.6774,-8.6954,-8.6954,-8.6743,-8.6749,-8.6752,-8.6755,0,0,0,0,0,0,0,-8.6785,-8.6734,-8.6937,-8.6824,-8.6814,-8.6944,-8.6944,-8.6944,-8.6717,-8.6708,-8.6698,-8.669,-8.6698,-8.6707,-8.6716,-8.6954,0,0,-8.6743,-8.6746,0,0,0,0,0,0,0,0,-8.6727,-8.6732,-8.6937,-8.6937,-8.6937,-8.6944,-8.6944,-8.6944,-8.6715,-8.6708,-8.67,-8.6693,-8.6701,-8.6708,-8.6715,0,0,0,0,0,0,0,0,0,0,0,0,0,0,0,-8.6937,-8.6937,0,-8.6944,-8.6944,-8.6944,-8.6714,-8.6708,-8.6702,-8.6696,-8.6703,-8.6708,-8.6714,0,0,0,0,0,0,0,0,0,0,0,0,0,0,0,0,0,0,0,0,0,0,0,0,0,0,0,0,0,0,0,0,0,0,0,0,0,0,0,0,0,0,0,0,0,0,0,0,0,0,0,0,0,0,0,0,0,0,0,0,0,0,0,0,0,0,0,0,0]}],[{"header":{"parameterUnit":"kt","parameterCategory":2,"dx":1,"dy":1,"la1":30.253999710083008,"la2":30.299108505249023,"lo1":-89.0895004272461,"lo2":-89.04439544677734,"nx":28,"ny":28,"refTime":"2022-10-09T21:00:00:Z","depth":0,"parameterNumber":2,"parameterNumberName":"V-component_of_WINDS"},"data":[-5.5515,-5.5615,-5.561,-5.5721,-5.5735,-5.581,-5.5835,-5.5867,-5.5891,-5.5979,-5.6029,-5.6034,-5.6056,-5.6114,-5.6167,-5.6168,-5.6192,-5.623,-5.6225,-5.6058,-5.6035,-5.6012,-5.5989,-5.6235,-5.6235,-5.64,-5.6402,-5.6403,-5.5391,-5.5407,-5.5464,-5.5517,-5.5565,-5.5525,-5.5563,-5.5607,-5.5675,-5.5705,-5.5754,-5.5831,-5.5891,-5.5901,-5.5958,-5.6004,-5.5989,-5.602,-5.6018,-5.6022,-5.5842,-5.5818,-5.6031,-5.6031,-5.6031,-5.6031,-5.6031,-5.6031,-5.5165,-5.5225,-5.5254,-5.5316,-5.5341,-5.5376,-5.5432,-5.5437,-5.5493,-5.5552,-5.5535,-5.5612,-5.5641,-5.5708,-5.5729,-5.5789,-5.5754,-5.5786,-5.5795,-5.5804,-5.5815,-5.558,-5.5798,-5.5797,-5.5796,-5.5796,-5.5795,0,-5.4999,-5.4991,-5.5046,-5.5099,-5.5144,-5.5185,-5.5222,-5.5256,-5.5237,-5.5284,-5.5352,-5.539,-5.5465,-5.5528,-5.558,-5.5596,-5.5561,-5.5556,-5.5578,-5.559,-5.5592,-5.5594,-5.5303,-5.555,-5.5548,-5.5546,-5.5545,-5.5544,-5.4772,-5.4842,-5.487,-5.4909,-5.4928,-5.4992,-5.5028,-5.5007,-5.5047,-5.5088,-5.5142,-5.5204,-5.5254,-5.5363,-5.5368,-5.5424,-5.5408,-5.5503,-5.5417,-5.5423,-5.5412,-5.5409,-5.5416,-5.5522,-5.5525,-5.5527,-5.5529,0,-5.4645,-5.4637,-5.4744,-5.4765,-5.4772,-5.4847,-5.4865,-5.4923,-5.4921,-5.5002,-5.5019,-5.5018,-5.5084,-5.5074,-5.5148,-5.5141,-5.5264,-5.5245,-5.5253,-5.525,-5.5335,-5.5328,-5.5612,-5.5648,-5.5391,-5.5393,-5.5395,0,-5.4449,-5.4542,-5.4525,-5.4588,-5.469,-5.4666,-5.4767,-5.4776,-5.4801,-5.4865,-5.4822,-5.4882,-5.486,-5.4918,-5.4908,-5.5006,-5.5019,-5.5021,-5.5017,-5.5026,-5.5026,-5.5049,-5.5038,-5.5004,-5.5003,-5.5002,-5.5001,0,-5.4253,-5.4353,-5.4454,-5.4475,-5.4508,-5.4556,-5.4571,-5.4599,-5.4636,-5.4681,-5.4704,-5.4759,-5.479,-5.4832,-5.4819,-5.4761,-5.4938,-5.4855,-5.4939,-5.494,-5.4982,-5.498,-5.5231,-5.4999,-5.4998,-5.4998,-5.4997,0,-5.4095,-5.4142,-5.429,-5.4315,-5.4342,-5.4409,-5.4461,-5.4516,-5.4549,-5.4546,-5.4582,-5.4553,-5.4637,-5.4556,-5.4671,-5.4599,-5.4632,-5.464,-5.4646,-5.4655,-5.4565,-5.4711,-5.4949,-5.4974,-5.466,-5.4657,-5.4655,0,-5.3873,-5.402,-5.4001,-5.4142,-5.4209,-5.4157,-5.423,-5.4261,-5.4264,-5.4321,-5.4323,-5.4389,-5.4326,-5.4345,-5.4403,-5.441,-5.4503,-5.4396,-5.448,-5.4484,-5.4475,-5.4693,-5.4733,-5.4897,-5.4619,-5.4622,-5.4625,0,-5.3701,-5.374,-5.3766,-5.379,-5.3827,-5.3883,-5.3967,-5.4026,-5.4065,-5.4104,-5.4175,-5.4265,-5.4222,-5.4254,-5.4237,-5.4298,-5.4439,-5.4244,-5.4244,-5.4281,-5.4599,-5.4636,-5.4664,-5.4414,-5.4418,-5.4422,-5.4596,0,-5.3466,-5.3539,-5.3609,-5.3664,-5.3705,-5.3793,-5.3783,-5.3827,-5.3806,-5.3808,-5.3911,-5.3934,-5.3996,-5.4024,-5.4004,-5.4147,-5.4122,-5.4076,-5.3998,-5.414,-5.4198,-5.4221,-5.3913,-5.391,-5.3908,-5.3907,0,0,-5.3257,-5.3361,-5.3338,-5.3419,-5.3453,-5.3399,-5.3494,-5.352,-5.3575,-5.36,-5.3555,-5.3688,-5.3709,-5.3836,-5.3879,-5.3904,-5.3929,-5.388,-5.4072,-5.4091,-5.4108,-5.417,-5.4194,-5.3903,-5.3903,-5.3902,-5.3901,0,-5.3169,-5.3192,-5.3286,-5.3312,-5.335,-5.3347,-5.337,-5.3398,-5.3404,-5.3505,-5.346,-5.352,-5.3627,-5.3656,-5.3685,-5.3863,-5.3827,-5.3882,-5.3982,-5.4052,-5.4074,-5.4092,-5.4157,-5.4181,-5.3896,-5.3897,-5.3897,0,-5.2999,-5.302,-5.3064,-5.3138,-5.3163,-5.3233,-5.3148,-5.3226,-5.3278,-5.3216,-5.3317,-5.3329,-5.3367,-5.3487,-5.3541,-5.3503,-5.3735,-5.366,-5.3672,-5.3679,-5.3746,-5.3772,-5.3794,-5.3497,-5.3495,-5.3494,0,0,-5.2925,-5.2993,-5.3009,-5.3119,-5.3137,-5.3135,-5.3172,-5.3155,-5.319,-5.3204,-5.3219,-5.3255,-5.3316,-5.3358,-5.3415,-5.3549,-5.3555,-5.3611,-5.363,-5.3645,-5.366,-5.3732,-5.3757,-5.3489,-5.3489,-5.3489,0,0,-5.289,-5.2914,-5.2887,-5.3013,-5.3047,-5.3071,-5.3139,-5.3106,-5.3157,-5.3146,-5.3122,-5.3131,-5.3243,-5.3257,-5.3189,-5.3388,-5.331,-5.3326,-5.3375,-5.3399,-5.3417,-5.3413,-5.3107,0,0,0,0,0,-5.2797,-5.291,-5.2886,-5.2905,-5.2999,-5.3085,-5.3096,-5.3079,-5.3025,-5.3078,-5.3086,-5.3044,-5.3215,-5.3155,-5.3175,-5.3252,-5.3423,-5.3435,-5.3446,-5.354,-5.3565,-5.3586,0,0,0,0,0,0,-5.2805,-5.2829,-5.2883,-5.2912,-5.2932,-5.308,-5.2984,-5.2983,-5.3018,-5.3009,-5.3044,-5.3045,-5.3032,-5.3144,-5.3162,-5.3235,-5.3101,-5.3428,-5.3438,-5.3447,-5.3548,-5.3569,-5.3586,0,0,0,0,0,-5.2811,-5.283,-5.2986,-5.291,-5.2928,-5.2932,-5.298,-5.2978,-5.3005,-5.3017,-5.3017,-5.2989,-5.3035,-5.3049,-5.3154,-5.3227,-5.3088,-5.3095,-5.3434,-5.3442,-5.3449,-5.3558,0,0,0,0,0,0,-5.2815,-5.2829,-5.2989,-5.2994,-5.2866,-5.2923,-5.2932,-5.2974,-5.3011,-5.3012,-5.2961,-5.2953,-5.3038,-5.3048,-5.3059,-5.3225,-5.3078,-5.3085,-5.3089,-5.344,-5.3446,-5.3452,0,0,0,0,0,0,-5.2818,-5.2833,-5.2991,-5.2937,-5.2935,-5.2915,-5.2923,-5.301,-5.3012,-5.2952,-5.2947,-5.2957,-5.3021,-5.3048,-5.3057,-5.3194,-5.307,-5.3076,-5.3081,-5.3084,-5.3445,-5.345,0,0,0,0,0,0,-5.2824,-5.2837,-5.2935,-5.2934,-5.2933,-5.2986,-5.2992,-5.309,-5.2965,-5.2951,-5.2953,-5.2948,-5.3023,-5.3031,-5.3056,-5.3189,-5.3193,-5.307,-5.3075,-5.3078,-5.308,0,0,0,0,0,0,0,-5.2829,-5.2746,-5.296,-5.2932,-5.2931,-5.3039,-5.304,-5.3041,-5.2964,-5.2959,-5.2955,-5.295,-5.3031,-5.3039,-5.3046,-5.3186,0,0,-5.3069,-5.3073,0,0,0,0,0,0,0,0,-5.274,-5.2745,-5.296,-5.2961,-5.2962,-5.3039,-5.304,-5.3041,-5.2963,-5.2959,-5.2956,-5.2952,-5.3033,-5.3039,-5.3045,0,0,0,0,0,0,0,0,0,0,0,0,0,0,0,-5.296,-5.2961,0,-5.3039,-5.304,-5.3041,-5.2963,-5.2959,-5.2956,-5.2953,-5.3035,-5.304,-5.3045,0,0,0,0,0,0,0,0,0,0,0,0,0,0,0,0,0,0,0,0,0,0,0,0,0,0,0,0,0,0,0,0,0,0,0,0,0,0,0,0,0,0,0,0,0,0,0,0,0,0,0,0,0,0,0,0,0,0,0,0,0,0,0,0,0,0,0,0,0]}]]]